Location: Unspecified
(33.3110°N, 0.0000°E)
Time: 01:19:56
(UTC+00:00)

OTV 5 (USA 277) - Visible Passes

Search period start: 25 May 2019 00:00
Search period end: 04 June 2019 00:00
Orbit: 310 x 325 km, 54.5° (Epoch: 08 May)

Date Brightness Start Highest point End Pass type
(mag) Time Alt. Az. Time Alt. Az. Time Alt. Az.
01 Jun ? 03:45:48 10° SSE 03:47:23 14° SE 03:49:00 10° E visible
02 Jun ? 03:59:42 13° SSW 04:01:58 50° SE 04:04:38 10° NE visible
03 Jun ? 04:14:08 10° WSW 04:16:40 38° NW 04:19:17 10° NNE visible
